Ankeny, IA

6:34 PM CDT on May 23, 2018 (GMT -0500)
Ankeny Regional

Weather History for KIKV - September, 2013

Change the Weather History Date:

Friday, September 20, 2013

  Actual Average (KDSM) Record (KDSM)
Temperature  
Mean Temperature 62 °F -  
Max Temperature 68 °F 72 °F 92 °F (1931)
Min Temperature 53 °F 51 °F 33 °F (1991)
Degree Days  
Heating Degree Days 4    
Growing Degree Days 12 (Base 50)    
Moisture  
Dew Point 51 °F    
Average Humidity 71    
Maximum Humidity 94    
Minimum Humidity 52    
Precipitation  
Precipitation 0.00 in - - ()
Sea Level Pressure  
Sea Level Pressure 29.95 in    
Wind  
Wind Speed 12 mph (NW)    
Max Wind Speed 18 mph    
Max Gust Speed 28 mph    
Visibility 10 miles    
Events      
Averages and records for this station are not official NWS values.
T = Trace of Precipitation, MM = Missing Value Source: NWS Daily Summary

Daily Weather History Graph

Daily Weather History Graph

Search for Another Location

Airport or City:

Astronomy

Sep. 20, 2013 Rise Set
Actual Time 6:59 AM CDT 7:14 PM CDT
Civil Twilight 6:32 AM CDT 7:42 PM CDT
Nautical Twilight 5:59 AM CDT 8:14 PM CDT
Astronomical Twilight 5:26 AM CDT 8:47 PM CDT
Moon 7:46 PM CDT (9/20) 8:16 AM CDT (9/20)
Length of Visible Light 13h 10m
Length of Day
12h 14m
Full, 98% of the Moon is Illuminated
Sep 20
Full
Sep 26
Last Quarter
Oct 4
New
Oct 11
First Quarter
Oct 18
Full

Hourly Weather History & Observations

Time (CDT) Temp. Dew Point Humidity Pressure Visibility Wind Dir Wind Speed Gust Speed Precip Events Conditions
12:15 AM 66.2 °F 64.4 °F 94% 29.88 in 10.0 mi WNW 9.2 mph - N/A   Overcast
12:35 AM 66.2 °F 59.0 °F 78% 29.89 in 10.0 mi NW 15.0 mph - N/A   Light Drizzle
12:55 AM 64.4 °F 57.2 °F 77% 29.90 in 10.0 mi NW 10.4 mph 18.4 mph N/A   Overcast
1:15 AM 64.4 °F 57.2 °F 77% 29.90 in 10.0 mi NW 9.2 mph - N/A   Overcast
1:35 AM 62.6 °F 55.4 °F 77% 29.91 in 10.0 mi WNW 10.4 mph - N/A   Overcast
1:55 AM 62.6 °F 55.4 °F 77% 29.92 in 10.0 mi WNW 17.3 mph - N/A   Overcast
2:15 AM 62.6 °F 55.4 °F 77% 29.92 in 10.0 mi WNW 13.8 mph 20.7 mph N/A   Overcast
2:35 AM 60.8 °F 53.6 °F 77% 29.92 in 10.0 mi NW 12.7 mph 19.6 mph N/A   Overcast
2:55 AM 60.8 °F 53.6 °F 77% 29.92 in 10.0 mi NW 11.5 mph 18.4 mph N/A   Overcast
3:15 AM 60.8 °F 53.6 °F 77% 29.92 in 10.0 mi WNW 10.4 mph 18.4 mph N/A   Overcast
3:35 AM 60.8 °F 53.6 °F 77% 29.92 in 10.0 mi NW 11.5 mph 19.6 mph N/A   Overcast
3:55 AM 60.8 °F 53.6 °F 77% 29.91 in 10.0 mi NW 13.8 mph - N/A   Scattered Clouds
4:15 AM 59.0 °F 53.6 °F 82% 29.91 in 10.0 mi NW 12.7 mph - N/A   Scattered Clouds
4:35 AM 59.0 °F 51.8 °F 77% 29.92 in 10.0 mi WNW 11.5 mph - N/A   Scattered Clouds
4:55 AM 59.0 °F 51.8 °F 77% 29.93 in 10.0 mi WNW 11.5 mph - N/A   Partly Cloudy
5:15 AM 59.0 °F 51.8 °F 77% 29.93 in 10.0 mi WNW 10.4 mph - N/A   Clear
5:35 AM 57.2 °F 51.8 °F 82% 29.93 in 10.0 mi WNW 11.5 mph - N/A   Clear
5:55 AM 57.2 °F 51.8 °F 82% 29.94 in 10.0 mi WNW 11.5 mph - N/A   Clear
6:15 AM 57.2 °F 51.8 °F 82% 29.95 in 10.0 mi WNW 9.2 mph - N/A   Clear
6:35 AM 57.2 °F 51.8 °F 82% 29.95 in 10.0 mi WNW 11.5 mph 18.4 mph N/A   Clear
6:55 AM 55.4 °F 50.0 °F 82% 29.96 in 10.0 mi WNW 11.5 mph 18.4 mph N/A   Clear
7:15 AM 55.4 °F 50.0 °F 82% 29.97 in 10.0 mi WNW 12.7 mph - N/A   Clear
7:35 AM 55.4 °F 50.0 °F 82% 29.97 in 10.0 mi WNW 8.1 mph - N/A   Clear
7:55 AM 55.4 °F 50.0 °F 82% 29.97 in 10.0 mi WNW 10.4 mph - N/A   Clear
8:15 AM 55.4 °F 50.0 °F 82% 29.98 in 10.0 mi WNW 11.5 mph - N/A   Clear
8:35 AM 57.2 °F 50.0 °F 77% 29.99 in 10.0 mi WNW 13.8 mph - N/A   Clear
8:55 AM 57.2 °F 50.0 °F 77% 29.99 in 10.0 mi WNW 11.5 mph 17.3 mph N/A   Clear
9:15 AM 57.2 °F 50.0 °F 77% 29.98 in 10.0 mi WNW 16.1 mph - N/A   Clear
9:35 AM 57.2 °F 50.0 °F 77% 29.99 in 10.0 mi WNW 17.3 mph - N/A   Clear
9:55 AM 59.0 °F 48.2 °F 67% 29.99 in 10.0 mi NW 15.0 mph 23.0 mph N/A   Clear
10:15 AM 59.0 °F 50.0 °F 72% 29.99 in 10.0 mi WNW 13.8 mph 24.2 mph N/A   Clear
10:35 AM 60.8 °F 48.2 °F 63% 29.98 in 10.0 mi NW 17.3 mph 24.2 mph N/A   Clear
10:55 AM 60.8 °F 50.0 °F 68% 29.98 in 10.0 mi WNW 18.4 mph - N/A   Clear
11:15 AM 62.6 °F 48.2 °F 59% 29.98 in 10.0 mi WNW 17.3 mph 24.2 mph N/A   Clear
11:35 AM 62.6 °F 48.2 °F 59% 29.98 in 10.0 mi NW 13.8 mph 27.6 mph N/A   Clear
11:55 AM 64.4 °F 48.2 °F 56% 29.97 in 10.0 mi NW 17.3 mph 24.2 mph N/A   Partly Cloudy
12:15 PM 64.4 °F 50.0 °F 59% 29.97 in 10.0 mi NW 18.4 mph - N/A   Mostly Cloudy
12:35 PM 64.4 °F 50.0 °F 59% 29.97 in 10.0 mi WNW 15.0 mph 24.2 mph N/A   Mostly Cloudy
12:55 PM 64.4 °F 50.0 °F 59% 29.96 in 10.0 mi WNW 17.3 mph 24.2 mph N/A   Mostly Cloudy
1:15 PM 66.2 °F 50.0 °F 56% 29.96 in 10.0 mi NW 12.7 mph 21.9 mph N/A   Mostly Cloudy
1:35 PM 66.2 °F 50.0 °F 56% 29.96 in 10.0 mi NW 18.4 mph 25.3 mph N/A   Scattered Clouds
1:55 PM 64.4 °F 50.0 °F 59% 29.96 in 10.0 mi WNW 15.0 mph 21.9 mph N/A   Scattered Clouds
2:15 PM 64.4 °F 50.0 °F 59% 29.95 in 10.0 mi NW 16.1 mph - N/A   Mostly Cloudy
2:35 PM 66.2 °F 50.0 °F 56% 29.95 in 10.0 mi NW 16.1 mph 21.9 mph N/A   Mostly Cloudy
2:55 PM 64.4 °F 50.0 °F 59% 29.95 in 10.0 mi NNW 15.0 mph - N/A   Mostly Cloudy
3:15 PM 66.2 °F 50.0 °F 56% 29.94 in 10.0 mi NW 11.5 mph 19.6 mph N/A   Scattered Clouds
3:35 PM 68.0 °F 50.0 °F 52% 29.95 in 10.0 mi NW 13.8 mph 21.9 mph N/A   Mostly Cloudy
3:55 PM 66.2 °F 50.0 °F 56% 29.94 in 10.0 mi NW 13.8 mph 19.6 mph N/A   Mostly Cloudy
4:15 PM 68.0 °F 50.0 °F 52% 29.93 in 10.0 mi NNW 12.7 mph 19.6 mph N/A   Scattered Clouds
4:35 PM 68.0 °F 50.0 °F 52% 29.93 in 10.0 mi NW 9.2 mph 21.9 mph N/A   Scattered Clouds
4:55 PM 66.2 °F 50.0 °F 56% 29.93 in 10.0 mi NW 9.2 mph 18.4 mph N/A   Partly Cloudy
5:15 PM 68.0 °F 50.0 °F 52% 29.93 in 10.0 mi NNW 9.2 mph - N/A   Partly Cloudy
5:35 PM 66.2 °F 50.0 °F 56% 29.93 in 10.0 mi NNW 9.2 mph - N/A   Partly Cloudy
5:55 PM 66.2 °F 50.0 °F 56% 29.93 in 10.0 mi NNW 11.5 mph - N/A   Clear
6:15 PM 66.2 °F 50.0 °F 56% 29.93 in 10.0 mi NNW 8.1 mph - N/A   Clear
6:35 PM 64.4 °F 50.0 °F 59% 29.93 in 10.0 mi North 6.9 mph - N/A   Clear
6:55 PM 64.4 °F 50.0 °F 59% 29.93 in 10.0 mi NNW 6.9 mph - N/A   Clear
7:15 PM 60.8 °F 51.8 °F 72% 29.93 in 10.0 mi North 5.8 mph - N/A   Clear
7:35 PM 59.0 °F 51.8 °F 77% 29.93 in 10.0 mi Calm Calm - N/A   Clear
7:55 PM 57.2 °F 51.8 °F 82% 29.94 in 10.0 mi Calm Calm - N/A   Clear
8:15 PM 55.4 °F 51.8 °F 88% 29.95 in 10.0 mi North 4.6 mph - N/A   Scattered Clouds
8:35 PM 55.4 °F 51.8 °F 88% 29.96 in 10.0 mi Calm Calm - N/A   Mostly Cloudy
8:55 PM 55.4 °F 53.6 °F 94% 29.96 in 10.0 mi Calm Calm - N/A   Mostly Cloudy
9:15 PM 55.4 °F 53.6 °F 94% 29.97 in 10.0 mi Calm Calm - N/A   Mostly Cloudy
9:35 PM 57.2 °F 51.8 °F 82% 29.97 in 10.0 mi North 4.6 mph - N/A   Overcast
9:55 PM 59.0 °F 50.0 °F 72% 29.98 in 10.0 mi NNW 9.2 mph - N/A   Mostly Cloudy
10:15 PM 59.0 °F 50.0 °F 72% 29.98 in 10.0 mi NNW 17.3 mph - N/A   Partly Cloudy
10:35 PM 57.2 °F 48.2 °F 72% 29.99 in 10.0 mi North 9.2 mph 19.6 mph N/A   Clear
10:55 PM 55.4 °F 46.4 °F 72% 29.99 in 10.0 mi NNW 8.1 mph - N/A   Clear
11:15 PM 55.4 °F 46.4 °F 72% 29.99 in 10.0 mi NNW 6.9 mph - N/A   Clear
11:35 PM 55.4 °F 44.6 °F 67% 29.98 in 10.0 mi NW 9.2 mph - N/A   Clear
11:55 PM 53.6 °F 44.6 °F 72% 29.98 in 10.0 mi NNW 9.2 mph - N/A   Clear